sat.trackr.live / text

‹ back to catalog

STARLINK-31929

NORAD 59836 · 2024-097B

PAYLOAD ACTIVE UNKNOWN

§ Identity

Operator
Country
US
Launch date
2024-05-23
Launch site
AFETR
Launch vehicle
Mass (kg)
RCS (m²)

Purposes: comms

External: N2YO · Heavens-Above · Gunter

§ Orbital elements

Epoch: 2026-09-21T07:52:49.436544Z

Period
94.27 min
Inclination
43.0007°
Eccentricity
0.0000939
Mean motion
15.27578306 rev/d
Perigee alt
482.4 km
Apogee alt
483.7 km
Semi-major
6,861.2 km
B*
1.8065e-5
RAAN
249.8018°
Arg perigee
272.3450°
Mean anomaly
87.7294°
Rev number
13,183

§ Raw data

STARLINK-319291 59836U 24097B   26264.32834996  .00000235  00000+0  18065-4 0  99902 59836  43.0007 249.8018 0000939 272.3450  87.7294 15.27578306131830

JSON: /api/v1/satellites/59836 · /tle

For live sub-satellite position, see the globe view (requires WebGL).

§ Visibility from observer

Set your observer location to see the next 7 days of passes ≥ 10°. The values pass through the URL so the page stays shareable.

No JS? Fill the form by hand. The geolocation button needs JavaScript.